DateTimeUTC,F1_A11,F1_S11,BsB_S11,BsG_S11,BsR_S11,BbsB_S11,BbsG_S11,BbsR_S11,BaB_A11,BaG_A11,BaR_A11,Tu_S11,T_S11,Uu_S11,U_S11,P_S11,T1_A11
2021-06-05T07:00:00Z,00000200,20000000,,,,,,,0000.07,0000.34,0000.08,16.5,23.4,06.7,04.4,0675.5,30.8
2021-06-05T07:01:00Z,00000200,20000000,,,,,,,0000.02,-000.14,-000.01,16.5,23.4,06.7,04.3,0675.5,30.8
2021-06-05T07:02:00Z,00000200,20000000,,,,,,,0000.08,0000.11,-000.10,16.5,23.4,06.6,04.3,0675.5,30.8
2021-06-05T07:03:00Z,00000200,60000000,,,,,,,0000.64,0000.30,0000.30,16.5,23.4,06.6,04.3,0675.5,30.8
2021-06-05T07:04:00Z,00000200,40000000,0001.66,0001.47,0000.62,0000.45,0000.44,-000.01,0000.81,0000.73,0000.57,16.6,23.2,06.9,04.6,0676.4,30.8
2021-06-05T07:05:00Z,00000200,00000000,0001.65,0001.56,0000.85,0000.62,0000.22,0000.14,0000.48,0000.75,0000.27,16.7,23.1,06.9,04.6,0676.5,30.8
2021-06-05T07:06:00Z,00000200,00000000,0002.29,0001.69,0000.65,0000.25,0000.19,0000.03,0000.58,0000.33,0000.69,16.7,23.1,06.9,04.6,0676.5,30.8
2021-06-05T07:07:00Z,00000200,00000000,0002.45,0001.53,0000.77,0000.00,0000.20,0000.13,0000.61,0000.24,0000.40,16.7,23.1,06.9,04.7,0676.5,30.8
2021-06-05T07:08:00Z,00000200,00000000,0001.68,0001.55,0000.78,0000.20,0000.17,0000.22,0001.03,0001.03,0000.76,16.7,23.1,07.0,04.7,0676.5,30.8
2021-06-05T07:09:00Z,00000200,00000000,0002.71,0001.84,0000.92,0000.69,0000.20,0000.39,0000.53,0000.45,0000.12,16.7,23.1,07.2,04.8,0676.5,30.8
2021-06-05T07:10:00Z,00000200,00000000,0002.11,0002.03,0001.00,0000.12,0000.27,0000.23,0001.03,0001.08,0000.65,16.7,23.1,07.3,04.9,0676.5,30.8
2021-06-05T07:11:00Z,00000200,00000000,0001.92,0001.97,0000.90,0000.86,0000.18,0000.17,0000.42,0000.25,0000.75,16.7,23.1,07.4,05.0,0676.5,30.8
2021-06-05T07:12:00Z,00000200,00000000,0002.02,0001.55,0000.96,0000.41,0000.54,0000.15,0000.64,0000.82,0000.31,16.7,23.1,07.4,05.0,0676.5,30.8
2021-06-05T07:13:00Z,00000200,00000000,0001.69,0001.51,0000.68,0000.52,0000.23,0000.03,0000.61,0000.61,0000.34,16.6,23.1,07.5,05.0,0676.5,30.8
2021-06-05T07:14:00Z,00000200,00000000,0001.77,0001.45,0000.92,0000.31,0000.12,0000.15,0001.01,0000.78,0000.56,16.7,23.1,07.4,05.0,0676.5,30.8
2021-06-05T07:15:00Z,00000200,00000000,0001.87,0001.94,0000.77,0000.45,0000.03,0000.01,0000.13,0000.26,0000.27,16.7,23.1,07.4,05.0,0676.6,30.8
2021-06-05T07:16:00Z,00000200,00000000,0001.67,0001.56,0000.71,-000.03,0000.28,-000.02,0000.41,0000.70,0000.53,16.7,23.1,07.3,04.9,0676.5,30.8
2021-06-05T07:17:00Z,00000200,00000000,0002.63,0001.83,0000.65,0000.63,0000.36,-000.05,0000.87,0000.81,0000.53,16.7,23.1,07.5,05.0,0676.5,30.8
2021-06-05T07:18:00Z,00000200,00000000,0002.23,0001.83,0000.75,0000.16,0000.16,0000.05,0000.75,0000.24,0000.40,16.7,23.1,07.6,05.1,0676.5,30.8
2021-06-05T07:19:00Z,00000200,00000000,0002.57,0001.44,0001.13,0000.37,0000.18,0000.01,0000.85,0000.54,0000.41,16.7,23.0,07.5,05.1,0676.5,30.8
2021-06-05T07:20:00Z,00000200,00000000,0001.51,0001.64,0000.50,0000.16,0000.45,0000.16,0000.77,0000.80,0000.65,16.7,23.1,07.7,05.2,0676.5,30.8
2021-06-05T07:21:00Z,00000200,00000000,0002.18,0001.76,0000.90,0000.04,0000.22,0000.37,0000.64,0000.92,0000.51,16.7,23.1,07.7,05.2,0676.5,30.8
2021-06-05T07:22:00Z,00000200,00000000,0001.82,0001.43,0000.93,0000.32,0000.22,0000.57,0000.42,0000.64,0000.55,16.8,23.1,07.5,05.1,0676.6,30.9
2021-06-05T07:23:00Z,00000200,00000000,0002.23,0002.04,0001.21,0000.51,0000.17,0000.65,0000.50,0000.18,0000.27,16.8,23.1,07.5,05.1,0676.6,30.9
2021-06-05T07:24:00Z,00000200,00000000,0002.43,0002.01,0000.64,0000.63,0000.39,0000.54,0000.76,0000.48,0000.23,16.9,23.2,07.6,05.2,0676.5,30.9
2021-06-05T07:25:00Z,00000200,00000000,0002.14,0001.22,0000.98,0000.30,0000.30,0000.19,0000.51,0000.55,0000.44,17.0,23.2,07.6,05.2,0676.6,30.9
2021-06-05T07:26:00Z,00000200,00000000,0001.81,0001.46,0000.75,0000.28,0000.34,0000.19,0000.40,0000.23,0000.43,17.0,23.2,07.5,05.1,0676.6,30.9
2021-06-05T07:27:00Z,00000200,00000000,0001.78,0001.43,0000.66,0000.76,0000.33,0000.03,0000.76,0000.98,0000.26,17.0,23.2,07.6,05.2,0676.6,30.9
2021-06-05T07:28:00Z,00000200,00000000,0002.18,0001.44,0000.55,-000.03,0000.10,0000.35,0000.20,-000.31,0000.00,17.0,23.2,07.5,05.1,0676.6,30.9
2021-06-05T07:29:00Z,00000200,00000000,0001.83,0001.63,0000.87,-000.06,0000.24,0000.26,0000.26,0000.91,0000.58,17.0,23.2,07.6,05.2,0676.6,30.9
2021-06-05T07:30:00Z,00000200,00000000,0001.49,0001.14,0000.42,0000.48,0000.19,0000.20,0000.89,0000.62,0000.59,17.0,23.2,07.6,05.2,0676.5,30.9
2021-06-05T07:31:00Z,00000200,00000000,0001.44,0001.31,0000.48,-000.29,0000.44,-000.03,0000.16,0000.62,0000.46,17.0,23.2,07.8,05.3,0676.5,30.9
2021-06-05T07:32:00Z,00000200,00000000,0001.53,0001.13,0000.61,0000.34,0000.20,0000.17,0000.82,0000.18,0000.06,17.0,23.2,07.8,05.3,0676.5,30.9
2021-06-05T07:33:00Z,00000200,00000000,0001.69,0001.55,0000.82,0000.98,0000.23,0000.08,0000.07,0000.24,0000.37,17.0,23.2,07.7,05.2,0676.5,30.9
2021-06-05T07:34:00Z,00000200,00000000,0001.47,0001.16,0000.80,-000.36,0000.09,0000.35,0000.64,0000.47,0000.15,17.0,23.2,07.6,05.2,0676.5,30.9
2021-06-05T07:35:00Z,00000200,00000000,0001.69,0001.41,0000.27,0000.46,0000.23,0000.18,0000.45,0000.11,0000.20,17.0,23.2,07.5,05.1,0676.5,30.9
2021-06-05T07:36:00Z,00000200,00000000,0001.94,0001.50,0000.46,0000.36,0000.17,-000.24,0000.35,0000.68,0000.62,17.0,23.2,07.5,05.1,0676.5,30.9
2021-06-05T07:37:00Z,00000200,00000000,0001.52,0001.47,0000.50,0000.30,0000.17,0000.40,0000.40,0000.05,-000.02,17.0,23.2,07.7,05.2,0676.5,30.9
2021-06-05T07:38:00Z,00000200,00000000,0001.07,0001.19,0000.62,-000.01,0000.07,0000.40,0000.77,0000.73,0000.54,17.0,23.2,07.7,05.2,0676.5,30.8
2021-06-05T07:39:00Z,00000200,00000000,0001.97,0001.04,0000.48,0000.32,0000.38,0000.12,-000.30,-000.00,0000.11,17.0,23.2,07.7,05.2,0676.5,30.9
2021-06-05T07:40:00Z,00000200,00000000,0001.80,0000.94,0000.37,-000.12,0000.14,0000.10,0000.70,0000.47,0000.21,17.0,23.2,07.5,05.1,0676.5,30.9
2021-06-05T07:41:00Z,00000200,00000000,0000.61,0001.24,0000.63,0000.49,0000.17,0000.24,0000.56,0000.62,0000.61,17.0,23.2,07.4,05.0,0676.5,30.9
2021-06-05T07:42:00Z,00000200,00000000,0001.08,0001.03,0000.46,-000.23,0000.35,0000.13,0000.20,0000.32,-000.16,17.0,23.2,07.5,05.1,0676.5,30.9
2021-06-05T07:43:00Z,00000200,00000000,0001.65,0001.03,0000.24,0000.14,0000.04,-000.14,-000.01,0000.08,0000.35,17.0,23.2,07.4,05.0,0676.5,30.9
2021-06-05T07:44:00Z,00000200,00000000,0001.42,0001.25,0000.43,0000.18,0000.27,0000.04,0000.69,0000.35,0000.21,17.0,23.2,07.2,04.8,0676.5,30.9
2021-06-05T07:45:00Z,00000200,00000000,0001.36,0001.08,0000.75,0000.21,0000.44,0000.23,-000.07,0000.32,0000.27,17.0,23.2,07.1,04.8,0676.5,30.9
2021-06-05T07:46:00Z,00000200,00000000,0001.34,0001.01,0000.42,0000.48,0000.20,0000.14,0000.55,-000.29,0000.09,17.0,23.2,07.1,04.8,0676.5,30.9
2021-06-05T07:47:00Z,00000200,00000000,0001.46,0000.88,0000.31,0000.31,0000.32,0000.02,0000.54,0000.61,0000.62,17.0,23.2,07.1,04.8,0676.5,30.9
2021-06-05T07:48:00Z,00000200,00000000,0001.10,0000.76,0000.76,0000.13,0000.37,-000.08,0000.09,0000.30,-000.32,17.0,23.2,07.2,04.9,0676.5,30.9
2021-06-05T07:49:00Z,00000200,00000000,0001.68,0000.90,0000.43,-000.41,0000.16,0000.29,-000.08,0000.03,0000.34,17.0,23.3,07.0,04.7,0676.6,30.9
2021-06-05T07:50:00Z,00000200,00000000,-000.15,0001.16,0000.30,-000.10,0000.43,-000.07,0000.42,0000.17,0000.26,17.0,23.2,06.8,04.6,0676.6,30.9
2021-06-05T07:51:00Z,00000200,00000000,0000.94,0000.92,0000.49,-000.11,0000.09,0000.11,0000.11,0000.45,0000.20,17.0,23.3,06.7,04.6,0676.6,30.9
2021-06-05T07:52:00Z,00000200,00000000,0000.84,0000.81,-000.03,0000.26,0000.37,0000.04,0000.23,0000.12,0000.11,17.0,23.3,06.8,04.6,0676.5,30.9
2021-06-05T07:53:00Z,00000200,00000000,0000.90,0000.83,0000.03,0000.14,0000.16,-000.11,0000.57,0000.12,0000.38,17.0,23.3,06.6,04.5,0676.5,30.9
2021-06-05T07:54:00Z,00000200,00000000,0001.45,0000.56,0000.47,0000.24,0000.46,0000.19,0000.49,0000.65,-000.15,17.0,23.3,06.6,04.5,0676.6,30.9
2021-06-05T07:55:00Z,00000200,00000000,0000.50,0001.13,0000.28,0000.17,0000.29,0000.11,-000.22,-000.01,0000.01,17.0,23.3,06.6,04.4,0676.6,30.9
2021-06-05T07:56:00Z,00000200,00000000,0000.84,0001.09,0000.51,0001.07,0000.09,0000.29,0000.68,0000.27,0000.45,17.0,23.3,06.6,04.5,0676.6,30.9
2021-06-05T07:57:00Z,00000200,40000000,,,,,,,0000.56,0000.34,0000.28,17.0,23.3,06.4,04.3,0676.6,30.9
2021-06-05T07:58:00Z,00000200,60000000,,,,,,,-001.09,-000.61,-000.60,16.8,23.4,06.5,04.3,0675.6,30.9
2021-06-05T07:59:00Z,00000200,20000000,,,,,,,0000.37,0000.13,0000.18,16.8,23.5,06.5,04.3,0675.6,30.9
